Ypsilanti, MI

10:23 PM EST on December 09, 2016 (GMT -0500)
Willow Run

Weather History for KYIP - June, 2014

Change the Weather History Date:

Wednesday, June 18, 2014

  Actual Average Record
Temperature  
Mean Temperature 77 °F -  
Max Temperature 84 °F 82 °F 93 °F (2007)
Min Temperature 70 °F 59 °F 43 °F (1999)
Cooling Degree Days 12    
Growing Degree Days 27 (Base 50)    
Moisture  
Dew Point 65 °F    
Average Humidity 76    
Maximum Humidity 87    
Minimum Humidity 61    
Precipitation  
Precipitation 1.52 in - - ()
Sea Level Pressure  
Sea Level Pressure 29.99 in    
Wind  
Wind Speed 6 mph (East)    
Max Wind Speed 18 mph    
Max Gust Speed 23 mph    
Visibility 7 miles    
Events Rain , Thunderstorm    
Averages and records for this station are not official NWS values.
T = Trace of Precipitation, MM = Missing Value Source: NWS Daily Summary

Daily Weather History Graph

Daily Weather History Graph

Search for Another Location

Airport or City:

Trip Planner

Search our weather history database for the weather conditions in past years. The results will help you decide how hot, cold, wet, or windy it might be!

Date:

Astronomy

Jun. 18, 2014 Rise Set
Actual Time 5:57 AM EDT 9:13 PM EDT
Civil Twilight 5:22 AM EDT 9:48 PM EDT
Nautical Twilight 4:37 AM EDT 10:32 PM EDT
Astronomical Twilight 3:43 AM EDT 11:27 PM EDT
Moon 12:35 AM EDT (6/18) 12:25 PM EDT (6/18)
Length of Visible Light 16h 25m
Length of Day
15h 16m
Waning Gibbous, 63% of the Moon is Illuminated
Jun 18
Waning Gibbous
Jun 19
Last Quarter
Jun 27
New
Jul 5
First Quarter
Jul 12
Full

Hourly Weather History & Observations

Time (EDT) Temp. Heat Index Dew Point Humidity Pressure Visibility Wind Dir Wind Speed Gust Speed Precip Events Conditions
12:53 AM 75.0 °F - 61.0 °F 62% 29.94 in 10.0 mi NW 5.8 mph - N/A   Partly Cloudy
1:53 AM 75.0 °F - 62.1 °F 64% 29.95 in 10.0 mi NNW 4.6 mph - N/A   Mostly Cloudy
2:53 AM 73.0 °F - 63.0 °F 71% 29.96 in 10.0 mi Calm Calm - N/A   Overcast
3:53 AM 73.9 °F - 63.0 °F 68% 29.94 in 10.0 mi ENE 4.6 mph - N/A   Mostly Cloudy
4:47 AM 71.6 °F - 62.6 °F 73% 29.98 in 1.8 mi NE 8.1 mph - 0.16 in Rain , Thunderstorm Thunderstorms and Rain
4:53 AM 71.1 °F - 64.0 °F 78% 29.95 in 1.8 mi NE 10.4 mph - 0.20 in Rain , Thunderstorm Thunderstorms and Rain
4:57 AM 71.1 °F - 62.1 °F 73% 29.98 in 3.0 mi NE 9.2 mph - 0.00 in Rain , Thunderstorm Thunderstorms and Rain
5:50 AM 71.6 °F - 66.2 °F 83% 30.03 in 2.0 mi East 6.9 mph - 0.29 in Rain , Thunderstorm Thunderstorms and Rain
5:53 AM 71.1 °F - 66.0 °F 84% 30.00 in 2.5 mi ENE 6.9 mph - 0.31 in Rain , Thunderstorm Thunderstorms and Rain
6:00 AM 70.0 °F - 64.9 °F 84% 30.02 in 5.0 mi East 9.2 mph - 0.03 in Rain , Thunderstorm Thunderstorms and Rain
6:53 AM 71.1 °F - 64.9 °F 81% 29.98 in 10.0 mi SE 6.9 mph - 0.05 in   Mostly Cloudy
7:22 AM 71.1 °F - 64.9 °F 81% 30.08 in 10.0 mi NNW 18.4 mph 23.0 mph 0.00 in Rain , Thunderstorm Thunderstorms and Rain
7:53 AM 70.0 °F - 61.0 °F 73% 30.04 in 6.0 mi ENE 10.4 mph - 0.05 in Rain , Thunderstorm Thunderstorms and Rain
8:53 AM 71.1 °F - 64.0 °F 78% 30.02 in 9.0 mi SSE 8.1 mph - 0.01 in   Partly Cloudy
9:21 AM 72.0 °F - 64.9 °F 78% 30.05 in 10.0 mi NE 4.6 mph - N/A   Mostly Cloudy
9:33 AM 72.0 °F - 62.1 °F 71% 30.06 in 10.0 mi NE 4.6 mph - N/A   Mostly Cloudy
9:53 AM 73.0 °F - 66.0 °F 79% 30.02 in 10.0 mi ESE 4.6 mph - N/A   Scattered Clouds
10:53 AM 75.0 °F - 66.0 °F 73% 30.02 in 10.0 mi ENE 4.6 mph - N/A   Mostly Cloudy
11:53 AM 77.0 °F - 66.9 °F 71% 30.03 in 10.0 mi East 4.6 mph - N/A   Overcast
12:53 PM 81.0 °F 83.8 °F 68.0 °F 65% 30.00 in 10.0 mi SE 13.8 mph - N/A   Clear
1:53 PM 84.0 °F 87.8 °F 69.1 °F 61% 29.99 in 10.0 mi South 8.1 mph - N/A   Clear
2:53 PM 84.0 °F 88.4 °F 70.0 °F 63% 29.95 in 10.0 mi ESE 8.1 mph - N/A   Clear
3:53 PM 82.9 °F 87.5 °F 71.1 °F 67% 29.95 in 10.0 mi ESE 4.6 mph - 0.00 in Rain Light Rain
4:53 PM 70.0 °F - 64.9 °F 84% 29.99 in 3.0 mi South 5.8 mph - 0.43 in Rain Rain
5:34 PM 71.1 °F - 66.0 °F 84% 29.94 in 10.0 mi ENE 6.9 mph - 0.05 in Rain Light Rain
5:53 PM 71.1 °F - 66.9 °F 87% 29.92 in 10.0 mi ENE 9.2 mph - 0.06 in Rain Light Rain
6:53 PM 72.0 °F - 64.9 °F 78% 29.93 in 10.0 mi NE 8.1 mph - 0.00 in   Scattered Clouds
7:53 PM 72.0 °F - 64.9 °F 78% 29.96 in 10.0 mi ESE 3.5 mph - N/A   Clear
8:53 PM 72.0 °F - 64.9 °F 78% 29.98 in 10.0 mi SSE 5.8 mph - N/A   Overcast
9:53 PM 72.0 °F - 64.9 °F 78% 30.01 in 5.0 mi SSW 11.5 mph - 0.06 in Rain Light Rain
10:53 PM 71.1 °F - 66.0 °F 84% 30.01 in 5.0 mi Calm Calm - 0.16 in Rain Rain
11:13 PM 71.1 °F - 64.0 °F 78% 30.03 in 1.8 mi Calm Calm - 0.10 in Rain Heavy Rain
11:22 PM 71.1 °F - 64.9 °F 81% 30.03 in 2.0 mi Calm Calm - 0.15 in Rain Rain
11:30 PM 71.1 °F - 64.9 °F 81% 30.03 in 4.0 mi Calm Calm - 0.16 in Rain Rain
11:53 PM 71.1 °F - 64.9 °F 81% 29.99 in 4.0 mi East 5.8 mph - 0.19 in Rain Light Rain